sat.trackr.live / text

‹ back to catalog

QIANFAN-193

NORAD 69411 · 2026-125L

PAYLOAD ACTIVE UNKNOWN

§ Identity

Operator
Country
PRC
Launch date
2026-06-05
Launch site
WSC
Launch vehicle
Mass (kg)
RCS (m²)

External: N2YO · Heavens-Above · Gunter

§ Orbital elements

Epoch: 2026-09-20T03:12:53.058816Z

Period
106.59 min
Inclination
88.9866°
Eccentricity
0.0001952
Mean motion
13.51027492 rev/d
Perigee alt
1,067.0 km
Apogee alt
1,069.9 km
Semi-major
7,446.6 km
B*
3.5866e-5
RAAN
270.3322°
Arg perigee
103.3741°
Mean anomaly
256.7627°
Rev number
1,477

§ Raw data

QIANFAN-1931 69411U 26125L   26263.13394744  .00000035  00000+0  35866-4 0  99902 69411  88.9866 270.3322 0001952 103.3741 256.7627 13.51027492 14771

JSON: /api/v1/satellites/69411 · /tle

For live sub-satellite position, see the globe view (requires WebGL).

§ Visibility from observer

Set your observer location to see the next 7 days of passes ≥ 10°. The values pass through the URL so the page stays shareable.

No JS? Fill the form by hand. The geolocation button needs JavaScript.